When you browse on this site, cookies collect data to enhance your experience and personalize the content and advertising you see.
Visit our Privacy Policy to learn more. By continuing to use the site, you agree to this use of cookies and data.
  • In Portugal
  • List of Countries
  • For 7 days
  • Water Temperature
  • Satellite Maps
  • Weather Map
  • Weather Widgets
  • user-avatar
    Login

    Hourly Weather Zarka

    Today, 19 January, Saturday

    Time Temperature Precipitation Wind Pressure Humidity
    00:00 +6°C° 0 mm 0 mps 708 mmHg 82%
    01:00 +7°C° 0 mm 1 mps 708 mmHg 81%
    02:00 +6°C° 0 mm 1 mps 707 mmHg 83%
    03:00 +6°C° 0 mm 1 mps 707 mmHg 80%
    04:00 +6°C° 0 mm 1 mps 707 mmHg 77%
    05:00 +6°C° 0 mm 1 mps 707 mmHg 74%
    06:00 +5°C° 0 mm 2 mps 707 mmHg 70%
    07:00 +6°C° 0 mm 2 mps 708 mmHg 65%
    08:00 +6°C° 0 mm 2 mps 708 mmHg 61%
    09:00 +7°C° 0 mm 2 mps 708 mmHg 56%
    10:00 +9°C° 0 mm 2 mps 708 mmHg 51%
    11:00 +10°C° 0 mm 2 mps 708 mmHg 47%
    12:00 +12°C° 0 mm 2 mps 708 mmHg 45%
    13:00 +12°C° 0 mm 2 mps 708 mmHg 43%
    14:00 +13°C° 0 mm 1 mps 707 mmHg 41%
    15:00 +13°C° 0 mm 1 mps 707 mmHg 44%
    16:00 +12°C° 0 mm 1 mps 707 mmHg 48%
    17:00 +11°C° 0 mm 1 mps 707 mmHg 51%
    18:00 +11°C° 0 mm 1 mps 707 mmHg 52%
    19:00 +9°C° 0 mm 2 mps 707 mmHg 54%
    20:00 +9°C° 0 mm 2 mps 707 mmHg 56%
    21:00 +8°C° 0 mm 2 mps 707 mmHg 57%
    22:00 +8°C° 0 mm 2 mps 707 mmHg 58%
    23:00 +8°C° 0 mm 2 mps 707 mmHg 60%

    Tomorrow, 20 January, Sunday

    Time Temperature Precipitation Wind Pressure Humidity
    00:00 +8°C° 0 mm 2 mps 707 mmHg 61%
    01:00 +7°C° 0 mm 2 mps 707 mmHg 63%
    02:00 +7°C° 0 mm 2 mps 707 mmHg 65%
    03:00 +7°C° 0 mm 2 mps 707 mmHg 67%
    04:00 +6°C° 0 mm 2 mps 707 mmHg 68%
    05:00 +6°C° 0 mm 2 mps 706 mmHg 69%
    06:00 +5°C° 0 mm 3 mps 707 mmHg 67%
    07:00 +7°C° 0 mm 3 mps 707 mmHg 66%
    08:00 +7°C° 0 mm 3 mps 707 mmHg 65%
    09:00 +7°C° 0 mm 4 mps 707 mmHg 58%
    10:00 +10°C° 0 mm 4 mps 707 mmHg 52%
    11:00 +11°C° 0 mm 4 mps 707 mmHg 45%
    12:00 +12°C° 0 mm 4 mps 707 mmHg 41%
    13:00 +13°C° 0 mm 4 mps 706 mmHg 37%
    14:00 +14°C° 0 mm 3 mps 706 mmHg 33%
    15:00 +13°C° 0 mm 3 mps 705 mmHg 37%
    16:00 +13°C° 0 mm 2 mps 705 mmHg 40%
    17:00 +12°C° 0 mm 1 mps 705 mmHg 44%
    18:00 +12°C° 0 mm 1 mps 705 mmHg 45%
    19:00 +12°C° 0 mm 2 mps 705 mmHg 46%
    20:00 +12°C° 0 mm 2 mps 705 mmHg 46%
    21:00 +10°C° 0 mm 2 mps 705 mmHg 46%
    22:00 +10°C° 0 mm 2 mps 705 mmHg 46%
    23:00 +10°C° 0 mm 2 mps 705 mmHg 45%

    Day after tomorrow, 21 January, Monday

    Time Temperature Precipitation Wind Pressure Humidity
    00:00 +10°C° 0 mm 2 mps 705 mmHg 45%
    01:00 +10°C° 0 mm 2 mps 705 mmHg 45%
    02:00 +10°C° 0 mm 2 mps 705 mmHg 45%
    03:00 +10°C° 0 mm 1 mps 705 mmHg 46%
    04:00 +10°C° 0 mm 1 mps 704 mmHg 47%
    05:00 +9°C° 0 mm 1 mps 704 mmHg 48%
    06:00 +10°C° 0 mm 1 mps 704 mmHg 47%
    07:00 +10°C° 0 mm 1 mps 705 mmHg 46%
    08:00 +11°C° 0 mm 1 mps 705 mmHg 46%
    09:00 +12°C° 0 mm 1 mps 705 mmHg 42%
    10:00 +13°C° 0 mm 1 mps 706 mmHg 39%
    11:00 +15°C° 0 mm 1 mps 706 mmHg 35%
    12:00 +15°C° 0 mm 2 mps 705 mmHg 36%
    13:00 +16°C° 0 mm 3 mps 705 mmHg 36%
    14:00 +17°C° 0 mm 4 mps 705 mmHg 37%
    15:00 +15°C° 0 mm 4 mps 705 mmHg 42%
    16:00 +14°C° 0 mm 3 mps 705 mmHg 48%
    17:00 +13°C° 0 mm 3 mps 705 mmHg 53%
    18:00 +13°C° 0 mm 2 mps 705 mmHg 60%
    19:00 +12°C° 0 mm 2 mps 705 mmHg 66%
    20:00 +11°C° 0 mm 1 mps 706 mmHg 73%
    21:00 +11°C° 0 mm 1 mps 706 mmHg 76%
    22:00 +10°C° 0 mm 1 mps 705 mmHg 80%
    23:00 +10°C° 0 mm 1 mps 705 mmHg 83%

    22 January, Tuesday

    Time Temperature Precipitation Wind Pressure Humidity
    00:00 +8°C° 0 mm 0 mps 705 mmHg 84%
    01:00 +8°C° 0 mm 0 mps 705 mmHg 85%
    02:00 +8°C° 0 mm 0 mps 705 mmHg 85%
    03:00 +7°C° 0 mm 0 mps 705 mmHg 85%
    04:00 +7°C° 0 mm 0 mps 705 mmHg 84%
    05:00 +7°C° 0 mm 0 mps 705 mmHg 84%
    06:00 +9°C° 0 mm 1 mps 705 mmHg 79%
    07:00 +10°C° 0 mm 1 mps 705 mmHg 74%
    08:00 +10°C° 0 mm 1 mps 706 mmHg 69%
    09:00 +12°C° 0 mm 1 mps 706 mmHg 61%
    10:00 +13°C° 0 mm 1 mps 706 mmHg 53%
    11:00 +15°C° 0 mm 1 mps 706 mmHg 45%
    12:00 +15°C° 0 mm 1 mps 706 mmHg 42%
    13:00 +16°C° 0 mm 1 mps 705 mmHg 39%
    14:00 +18°C° 0 mm 1 mps 705 mmHg 36%
    15:00 +16°C° 0 mm 1 mps 704 mmHg 39%
    16:00 +15°C° 0 mm 1 mps 704 mmHg 42%
    17:00 +14°C° 0 mm 1 mps 704 mmHg 45%
    18:00 +14°C° 0 mm 1 mps 704 mmHg 47%
    19:00 +13°C° 0 mm 1 mps 704 mmHg 48%
    20:00 +12°C° 0 mm 1 mps 704 mmHg 50%
    21:00 +12°C° 0 mm 1 mps 704 mmHg 52%
    22:00 +11°C° 0 mm 1 mps 704 mmHg 53%
    23:00 +11°C° 0 mm 1 mps 704 mmHg 54%

    23 January, Wednesday

    Time Temperature Precipitation Wind Pressure Humidity
    00:00 +10°C° 0 mm 1 mps 704 mmHg 55%
    01:00 +10°C° 0 mm 1 mps 703 mmHg 55%
    02:00 +10°C° 0 mm 1 mps 703 mmHg 55%
    03:00 +9°C° 0 mm 1 mps 703 mmHg 56%
    04:00 +8°C° 0 mm 0 mps 703 mmHg 57%
    05:00 +8°C° 0 mm 0 mps 703 mmHg 58%
    06:00 +9°C° 0 mm 1 mps 703 mmHg 56%
    07:00 +10°C° 0 mm 1 mps 704 mmHg 54%
    08:00 +11°C° 0 mm 1 mps 704 mmHg 52%
    09:00 +13°C° 0 mm 1 mps 704 mmHg 46%
    10:00 +14°C° 0 mm 2 mps 704 mmHg 41%
    11:00 +16°C° 0 mm 2 mps 704 mmHg 36%
    12:00 +16°C° 0 mm 2 mps 704 mmHg 34%
    13:00 +17°C° 0 mm 2 mps 703 mmHg 31%
    14:00 +18°C° 0 mm 2 mps 703 mmHg 29%
    15:00 +17°C° 0 mm 2 mps 702 mmHg 31%
    16:00 +16°C° 0 mm 2 mps 702 mmHg 34%
    17:00 +15°C° 0 mm 2 mps 702 mmHg 36%
    18:00 +14°C° 0 mm 3 mps 702 mmHg 37%
    19:00 +13°C° 0 mm 3 mps 702 mmHg 37%
    20:00 +12°C° 0 mm 3 mps 702 mmHg 38%
    21:00 +12°C° 0 mm 3 mps 702 mmHg 38%
    22:00 +11°C° 0 mm 3 mps 702 mmHg 37%
    23:00 +11°C° 0 mm 3 mps 701 mmHg 36%

    24 January, Thursday

    Time Temperature Precipitation Wind Pressure Humidity
    00:00 +11°C° 0 mm 3 mps 701 mmHg 36%
    01:00 +10°C° 0 mm 3 mps 701 mmHg 36%
    02:00 +10°C° 0 mm 2 mps 701 mmHg 37%
    03:00 +10°C° 0 mm 2 mps 700 mmHg 36%
    04:00 +9°C° 0 mm 2 mps 700 mmHg 36%
    05:00 +9°C° 0 mm 2 mps 700 mmHg 36%
    06:00 +10°C° 0 mm 3 mps 700 mmHg 36%
    07:00 +10°C° 0 mm 3 mps 701 mmHg 35%
    08:00 +11°C° 0 mm 3 mps 701 mmHg 34%
    09:00 +13°C° 0 mm 3 mps 701 mmHg 30%
    10:00 +16°C° 0 mm 3 mps 701 mmHg 26%
    11:00 +18°C° 0 mm 3 mps 702 mmHg 21%
    12:00 +19°C° 0 mm 4 mps 701 mmHg 20%
    13:00 +20°C° 0 mm 4 mps 701 mmHg 19%
    14:00 +21°C° 0 mm 5 mps 701 mmHg 17%
    15:00 +20°C° 0 mm 5 mps 701 mmHg 21%
    16:00 +19°C° 0 mm 4 mps 701 mmHg 25%
    17:00 +17°C° 0 mm 3 mps 701 mmHg 28%
    18:00 +16°C° 0 mm 3 mps 701 mmHg 32%
    19:00 +15°C° 0 mm 2 mps 702 mmHg 35%
    20:00 +14°C° 0 mm 1 mps 702 mmHg 39%
    21:00 +13°C° 0 mm 1 mps 702 mmHg 39%
    22:00 +13°C° 0 mm 1 mps 702 mmHg 40%
    23:00 +12°C° 0 mm 1 mps 702 mmHg 41%
    Show more